RH
81 81 82 84 85 84 84 84 84 84 88 82 82 85 88 86 85 86 86 88 87 86 86 88 87 86 87 87 86 85 88 87 85 83 83 75 65 56 48 41 41 47 54 58 61 61 60 60 60 61 62 62 62 62 62 62 62 62 60 58 56 53 48 59 67 73 76 77 78 78 78 77 77 78 78 78 80 81 80 81 81 81 82 83 83 83 82 84 84 85 85 84 83 82 81 80 78 77 76 77 78 79 81
83 83 81 83 84 85 86 86 85 84 87 88 89 90 89 89 89 88 89 88 88 87 87 87 87 88 88 87 86 85 84 86 85 83 81 75 68 60 52 48 45 44 45 51 58 63 64 62 62 63 64 64 64 64 63 64 64 64 64 62 60 58 56 70 75 76 76 76 77 78 77 76 76 77 78 77 78 80 80 80 80 80 80 81 81 81 81 82 83 84 85 85 84 84 84 84 83 81 79 78 77 77 79
84 85 83 85 86 87 87 87 88 87 85 86 87 88 88 89 89 88 89 89 88 88 88 86 87 88 89 88 87 86 81 84 84 84 82 79 74 68 62 57 53 50 46 44 48 57 69 66 65 64 65 66 66 66 65 65 65 65 65 64 63 61 61 75 79 79 80 77 77 78 78 77 77 78 79 79 79 79 80 80 80 80 80 80 81 81 81 81 81 81 84 85 85 85 84 86 87 87 85 83 81 79 78
86 87 87 88 86 86 88 88 89 90 88 89 87 86 89 86 87 88 89 89 89 89 88 88 89 89 90 88 85 81 78 75 77 80 81 79 78 75 72 66 60 55 53 50 47 50 64 68 68 66 67 67 67 67 67 67 66 66 66 65 63 62 62 74 79 80 81 78 77 78 79 79 79 79 80 81 81 81 81 81 81 82 81 80 81 81 81 80 80 80 81 82 82 83 84 86 87 88 89 89 87 85 82
84 84 82 86 86 84 87 87 88 88 88 89 88 87 89 91 91 92 93 92 90 89 89 89 90 91 90 88 83 77 73 73 77 80 81 81 80 79 78 73 66 60 55 55 52 51 57 68 70 67 67 68 68 68 68 67 67 66 65 64 63 63 67 76 80 80 81 81 80 81 81 80 80 80 81 81 82 83 84 83 83 83 82 81 81 81 82 81 80 80 80 80 79 79 81 84 86 88 88 89 90 90 89
79 81 81 85 85 85 88 88 88 89 93 93 92 90 90 90 91 92 94 94 91 89 89 89 90 91 90 88 83 79 76 77 78 80 81 81 81 80 79 76 70 64 59 57 54 53 56 66 68 67 67 68 68 68 68 68 67 66 65 64 62 65 76 75 77 79 81 81 82 83 82 81 81 82 82 82 82 83 84 84 85 85 84 82 83 84 83 81 80 80 81 81 81 80 79 81 83 85 86 88 88 89 90
81 82 84 85 87 89 90 90 89 89 91 89 89 90 87 83 83 86 88 90 88 86 87 88 89 89 89 87 84 81 78 78 78 78 80 81 80 79 77 74 71 67 64 63 60 59 60 64 65 66 66 67 68 69 69 69 68 67 66 65 64 67 76 78 77 77 78 81 82 83 82 81 82 82 83 82 82 82 82 83 85 85 85 83 84 85 84 83 82 81 81 81 82 82 80 80 80 81 82 83 85 86 87
81 81 82 85 88 90 87 88 89 90 90 90 93 94 89 83 81 81 81 84 85 86 84 85 84 84 85 86 84 81 77 78 78 78 79 80 79 78 75 72 70 69 69 69 68 68 68 67 67 68 68 69 70 70 70 69 69 69 69 68 68 70 77 81 79 74 75 78 80 81 81 80 81 81 82 82 81 81 82 82 82 83 83 82 83 83 84 84 85 84 82 81 82 83 83 82 81 80 80 78 80 82 85
79 81 83 87 89 91 90 89 88 87 89 88 87 86 87 84 82 82 83 86 87 87 86 83 81 79 79 80 79 77 76 77 78 78 80 80 79 77 73 69 68 68 70 71 71 71 71 71 71 71 71 71 70 70 70 69 69 70 70 71 71 73 80 81 78 74 72 76 78 80 81 81 81 81 81 81 81 82 82 81 81 82 83 82 82 83 84 85 85 85 84 83 82 82 82 84 83 81 82 80 79 79 79
78 79 83 87 90 91 90 86 88 90 92 89 86 82 81 81 84 88 89 88 89 89 86 81 76 73 73 73 73 73 74 76 77 79 80 81 80 78 73 67 64 64 67 69 70 70 70 70 70 70 71 70 70 70 69 69 69 70 70 71 72 75 82 82 79 75 72 73 76 79 80 80 81 81 81 81 81 82 81 81 81 81 81 81 81 81 82 83 83 83 84 85 85 84 83 84 84 84 85 84 82 81 80
76 77 82 86 87 86 85 85 86 86 87 86 84 82 81 83 85 88 89 85 84 84 84 78 72 68 68 69 70 71 74 76 77 79 80 81 80 79 74 68 62 60 61 64 66 67 67 67 66 66 68 69 69 69 68 68 67 67 69 70 72 75 82 83 81 77 73 72 74 77 79 80 81 81 80 81 81 81 81 81 80 80 81 81 81 81 83 82 82 82 82 84 84 84 83 83 83 84 85 85 85 84 83
71 73 79 81 81 80 78 78 78 77 76 75 75 76 79 82 83 83 83 82 83 84 81 74 69 65 66 68 70 72 74 75 77 78 79 79 80 79 76 69 64 59 57 60 63 64 64 64 64 63 64 65 66 65 65 64 64 65 66 69 72 77 83 81 79 76 73 71 72 75 78 80 81 81 80 80 80 80 81 80 80 80 81 81 81 82 82 81 81 81 81 82 83 84 84 83 83 82 83 82 83 84 84
65 69 73 74 74 73 73 72 72 70 69 69 69 71 73 75 77 78 78 79 81 82 80 74 70 68 69 70 72 73 74 75 76 77 77 77 77 77 76 71 66 61 58 59 61 63 63 63 63 63 63 63 62 60 59 60 61 63 64 69 75 81 82 80 76 74 73 70 71 73 76 78 79 79 80 80 80 80 80 81 81 81 81 81 82 82 81 80 80 81 80 81 81 82 82 82 82 83 82 83 84 84 83
63 65 69 69 70 70 70 69 69 68 69 70 71 73 74 76 77 78 79 80 80 79 77 75 73 73 73 74 75 76 76 76 76 76 76 75 74 74 75 71 67 63 61 60 60 62 63 63 64 64 64 63 60 57 54 56 59 61 63 71 78 81 81 78 75 73 73 70 70 71 75 77 78 78 79 79 80 80 81 81 82 82 81 81 81 81 81 81 81 81 81 80 80 80 80 81 82 83 83 84 86 87 84
62 64 67 66 67 68 68 68 68 70 72 74 75 76 77 78 78 78 78 79 78 77 76 75 75 76 76 77 78 78 78 77 76 74 73 71 70 70 71 69 67 65 63 61 60 60 61 63 64 65 65 64 61 56 51 55 59 61 62 73 78 79 79 76 74 72 71 70 70 72 76 78 78 78 78 78 79 80 80 81 81 81 81 80 80 81 81 81 82 83 83 81 81 81 81 81 80 81 81 82 83 84 83
63 64 65 64 65 66 67 68 71 75 78 77 77 77 77 79 78 76 74 76 77 77 76 76 77 78 79 81 81 80 78 75 72 68 66 66 65 65 67 68 67 66 65 63 60 59 59 61 62 64 64 64 60 56 51 55 59 61 61 71 75 76 75 74 73 71 70 69 70 72 76 77 78 78 79 77 78 79 79 80 80 80 80 80 81 81 81 81 82 84 85 83 83 83 82 81 80 80 80 80 79 79 81
63 64 64 65 66 67 69 72 76 80 82 79 77 76 77 79 79 76 71 72 74 75 76 78 80 82 83 85 83 79 73 68 64 60 60 60 61 62 64 67 68 68 66 62 59 57 57 58 60 60 60 60 58 54 50 54 57 59 59 65 71 74 71 72 71 70 69 69 70 72 75 76 78 79 79 79 78 78 78 78 79 79 79 80 81 82 81 81 81 83 85 83 83 83 82 81 81 82 82 82 81 81 84
63 65 66 67 69 71 74 77 81 83 84 80 77 75 75 77 79 77 69 69 71 74 78 80 83 86 88 86 81 73 63 59 56 55 55 56 57 59 61 65 66 65 62 57 54 53 54 55 55 55 55 56 54 52 50 53 55 56 57 62 68 73 70 69 69 69 69 70 70 71 73 76 78 79 80 80 78 77 78 78 79 79 79 79 80 81 81 80 81 82 83 84 83 83 84 85 86 86 87 86 86 88 91
64 66 68 69 72 75 80 82 84 85 86 82 77 73 73 73 77 78 70 70 73 77 80 79 81 84 86 79 70 61 54 53 52 53 53 53 54 55 56 58 58 57 54 52 50 50 50 50 50 50 50 51 51 51 50 51 52 53 54 61 67 70 68 67 67 68 69 71 70 69 70 75 77 78 79 79 78 78 79 79 79 79 79 80 79 79 79 80 81 83 83 83 84 85 86 87 87 88 89 89 90 92 93
65 67 69 70 72 76 82 85 86 86 86 85 79 73 70 69 73 76 73 73 77 81 78 73 73 76 77 67 58 52 50 51 51 52 51 51 51 51 52 52 52 51 51 50 49 48 47 47 47 47 47 48 48 49 49 49 49 49 50 61 67 69 67 67 68 69 71 70 69 69 68 74 77 78 78 78 79 79 79 79 78 78 79 79 79 79 79 81 81 81 82 81 82 82 83 83 84 84 85 85 85 85 85
66 68 69 70 72 75 81 86 87 86 86 86 81 74 70 67 69 73 75 76 81 81 69 64 65 67 64 56 51 49 50 49 49 48 48 48 47 47 47 48 49 50 50 49 48 46 46 45 45 45 45 45 46 46 47 47 46 46 48 58 65 68 67 67 69 70 70 68 70 70 67 75 78 79 79 78 79 79 78 77 76 76 78 79 79 79 78 79 80 80 80 80 80 80 81 80 80 79 79 79 79 79 79
68 69 69 71 73 76 81 87 87 86 86 86 81 74 70 65 67 71 74 77 79 73 56 56 56 56 54 51 49 48 46 45 44 42 41 40 39 39 39 42 44 46 47 46 45 44 44 44 43 43 42 42 42 42 43 43 43 44 45 50 55 59 64 67 69 69 67 66 70 73 72 76 77 77 77 77 77 77 76 77 77 78 79 79 78 78 77 79 79 79 79 79 79 79 79 80 79 78 78 78 78 78 79
72 72 69 72 75 79 82 87 88 86 86 84 78 70 66 63 65 68 71 74 70 63 52 54 54 54 53 51 46 41 37 36 35 33 31 30 29 30 32 36 39 41 42 43 42 42 42 42 42 41 40 39 39 39 39 40 41 42 43 44 46 49 55 62 65 66 64 66 71 75 76 77 76 74 74 74 75 76 76 77 77 77 78 78 78 78 79 80 80 79 79 79 79 79 79 80 81 81 81 81 80 80 81
75 74 71 73 77 81 85 89 88 86 85 83 74 66 65 63 62 63 65 64 60 56 54 54 54 52 50 43 35 29 27 27 26 25 23 22 23 25 29 32 35 37 38 39 39 40 40 40 40 39 38 39 38 38 38 39 41 42 42 42 43 46 51 55 57 59 63 68 73 77 77 75 74 74 75 75 75 76 76 76 76 76 76 76 77 79 80 80 79 79 77 77 78 78 78 79 80 81 82 82 81 80 80
76 75 72 74 79 83 87 89 88 87 86 79 70 64 68 63 61 60 58 57 56 55 55 54 51 47 40 31 24 21 21 21 21 21 20 22 24 26 29 31 33 34 35 36 37 38 39 39 39 39 39 39 39 39 38 39 40 41 41 41 43 46 50 51 51 53 60 69 74 77 77 74 73 74 76 75 75 76 75 75 76 76 75 75 76 77 78 78 78 78 76 76 76 76 76 76 77 78 79 80 79 79 78
75 74 72 76 80 84 86 88 88 87 83 73 69 69 68 63 61 60 59 58 57 56 55 51 45 37 27 21 19 19 20 20 21 22 23 24 27 29 32 34 35 36 36 37 38 39 40 40 40 40 40 40 40 39 39 40 40 40 40 41 44 48 51 50 48 47 52 70 75 75 75 73 73 73 74 73 73 74 74 74 74 74 73 74 75 76 76 76 76 76 76 76 76 76 77 76 75 76 77 79 80 80 79
74 73 72 77 81 83 83 86 86 83 76 70 71 72 69 64 62 61 60 59 57 55 51 44 34 25 19 19 19 20 20 21 22 23 25 27 30 33 36 38 39 40 39 39 40 41 42 42 42 42 41 39 38 38 39 40 40 40 40 43 46 49 51 49 45 42 42 67 76 75 74 72 71 70 70 71 71 71 72 73 73 73 73 73 74 75 74 74 75 76 76 77 77 78 78 78 78 79 77 79 81 81 80
73 72 72 78 81 81 80 82 80 76 71 71 72 73 69 65 62 60 58 56 53 48 41 30 22 19 19 21 21 21 21 22 23 26 29 32 35 37 39 40 40 40 39 39 40 41 41 42 42 41 39 38 37 37 39 40 40 40 42 46 48 50 50 47 43 40 41 64 74 75 72 69 68 67 67 68 69 70 71 72 73 73 73 73 74 75 74 74 74 75 75 76 76 77 78 79 79 79 78 78 78 78 79
72 71 74 80 80 79 78 76 72 70 69 72 72 71 68 64 60 57 52 47 41 34 25 20 20 22 23 23 23 24 24 27 29 32 35 37 38 38 38 38 37 37 37 37 38 39 40 40 40 40 39 38 38 39 40 41 41 42 45 48 49 49 48 45 41 38 40 60 70 73 72 68 66 65 66 68 69 70 70 71 72 73 73 74 74 74 74 74 74 74 74 75 75 75 76 76 76 75 76 76 76 77 77
71 72 77 80 79 76 74 69 66 67 68 72 71 67 64 61 57 51 41 34 28 23 19 21 23 24 25 26 28 29 31 33 35 37 39 39 38 37 35 33 32 31 32 34 36 37 39 39 39 39 39 39 40 41 41 41 43 45 47 48 48 48 47 45 41 38 37 46 60 70 68 67 66 66 68 69 70 70 69 70 71 72 73 73 73 74 74 74 74 74 73 74 75 75 74 74 74 74 74 74 76 77 77
71 74 80 79 78 74 70 66 64 64 66 71 69 64 59 56 49 40 28 24 21 20 21 23 24 26 28 31 32 34 35 37 38 39 39 38 35 33 30 28 27 26 28 31 33 36 37 38 39 39 39 40 41 41 41 42 44 46 48 48 47 47 46 45 42 39 37 36 46 59 66 65 66 67 68 69 69 69 69 70 71 72 73 73 73 73 73 73 74 74 74 74 74 73 74 74 75 74 74 74 74 75 76
73 77 80 78 76 74 69 67 64 61 61 67 67 62 56 51 40 29 22 21 20 19 20 22 25 28 31 34 35 36 36 36 37 37 37 34 31 28 25 24 24 25 26 29 32 34 36 38 38 38 38 39 40 41 42 43 45 47 48 47 47 47 47 46 44 42 40 41 46 54 65 64 64 66 68 70 70 70 72 71 71 71 73 73 73 73 73 73 74 74 74 73 74 74 75 74 74 73 73 73 73 74 75
75 78 78 77 76 73 70 69 65 60 56 60 61 58 51 43 31 23 21 20 20 20 22 23 26 29 33 35 35 35 33 33 33 33 33 29 26 23 23 24 25 26 28 29 31 33 35 37 38 38 37 37 38 40 42 43 45 46 47 47 47 48 49 48 46 45 45 47 48 50 56 62 64 66 68 69 70 71 74 74 73 72 73 73 73 73 73 73 73 73 73 73 73 74 75 75 74 74 72 72 72 72 73
76 79 76 78 76 74 72 70 66 61 54 51 49 46 41 33 25 20 20 20 21 23 23 23 25 28 31 34 34 33 31 30 29 29 28 24 22 21 22 24 26 27 29 30 31 33 36 37 38 37 35 35 36 38 41 43 45 46 47 48 49 50 51 50 48 48 50 51 49 47 47 57 64 68 69 68 68 69 70 73 74 73 72 72 73 74 73 73 72 72 72 72 72 73 73 74 73 73 72 72 72 72 73
76 78 77 78 77 74 73 70 65 60 54 46 39 34 31 25 21 20 21 23 25 26 25 23 24 26 29 31 31 31 29 27 27 26 25 21 19 19 20 23 26 28 30 31 32 34 36 38 38 36 34 32 32 34 38 42 44 46 47 48 50 51 52 51 50 51 53 52 49 45 42 48 57 65 70 68 67 67 67 68 69 69 69 70 72 73 73 72 72 72 72 72 73 73 72 72 73 73 72 73 73 73 74
74 77 77 79 77 74 73 68 64 59 54 44 33 25 23 21 21 21 23 26 28 29 26 24 23 23 25 27 28 28 26 26 25 24 22 19 17 17 18 21 25 28 30 31 32 34 36 37 37 36 33 30 29 30 34 38 41 43 45 48 50 51 51 51 51 52 53 51 47 43 41 44 48 55 65 68 67 65 63 63 63 63 64 66 69 71 72 72 73 73 72 73 73 73 73 72 72 71 71 72 73 73 74
74 76 78 79 77 73 71 66 62 58 55 42 30 21 20 21 22 23 25 27 29 29 27 24 22 22 23 25 26 26 25 25 24 22 20 17 16 15 15 18 22 26 29 30 31 33 35 36 36 35 32 28 27 28 31 35 38 40 43 46 47 48 49 49 50 51 51 47 44 40 40 42 44 47 52 64 65 62 59 59 58 59 60 63 66 69 71 73 74 74 74 74 74 74 74 73 72 71 71 71 72 72 73
73 76 79 79 76 72 68 64 60 58 57 40 27 20 20 22 23 24 26 27 27 27 27 24 23 23 25 26 27 26 26 25 24 22 19 16 14 13 12 15 18 22 26 27 29 31 32 34 35 34 31 28 27 28 31 35 39 42 44 44 44 45 46 46 47 47 46 42 40 39 39 41 43 46 50 61 63 60 56 55 56 57 59 63 65 67 70 72 73 75 75 75 75 75 74 74 73 72 72 72 72 72 73
74 76 79 77 74 70 66 62 60 59 60 38 25 20 21 23 24 25 25 25 25 26 26 24 23 24 27 28 28 28 26 25 24 22 19 16 14 12 11 13 15 19 23 25 27 28 30 32 33 33 30 28 29 31 34 39 42 46 48 45 43 42 43 43 42 41 39 37 37 38 39 42 44 46 49 55 58 57 54 52 53 55 59 63 66 67 69 71 73 74 75 75 75 75 74 74 74 74 73 72 73 73 74
74 76 77 75 72 68 64 61 60 59 58 35 23 20 21 22 23 23 23 23 24 24 25 23 23 23 27 29 29 28 26 24 23 21 18 15 13 12 11 12 14 17 20 23 25 27 28 30 31 31 29 29 31 35 39 42 45 48 50 48 44 42 40 39 38 36 35 35 36 38 40 42 44 47 48 49 50 51 48 48 50 53 59 62 65 67 68 70 72 73 73 73 74 74 74 74 74 74 73 73 73 74 75
74 75 75 73 70 66 63 61 60 59 55 32 22 20 21 22 22 22 22 23 23 23 23 23 23 23 27 28 29 28 26 24 22 20 16 14 12 11 11 12 14 17 20 22 24 26 28 29 30 31 29 29 31 36 41 45 47 49 51 49 45 41 38 36 35 34 34 35 37 39 40 42 44 46 47 46 46 45 43 43 45 48 54 60 64 65 67 69 70 70 70 71 72 73 74 74 73 73 73 72 73 74 76
73 73 73 70 68 65 62 60 60 58 50 30 22 20 21 21 22 22 22 22 22 22 21 22 22 24 26 27 27 26 25 24 22 19 15 13 12 11 11 13 15 17 20 22 23 25 27 29 31 31 31 31 33 37 42 46 48 49 50 47 43 39 36 35 34 34 35 36 37 39 39 41 43 45 45 44 43 42 40 39 39 41 43 54 60 63 66 66 66 67 67 68 70 72 74 74 73 72 72 73 73 74 75
72 72 71 68 66 64 62 59 59 57 44 27 21 21 22 22 23 23 23 22 21 21 21 21 22 24 26 27 27 26 25 23 21 17 14 12 11 11 11 12 14 17 19 21 23 25 28 30 31 32 32 34 36 39 43 44 45 45 45 43 40 38 35 35 35 35 36 37 38 38 39 40 42 43 43 43 42 41 40 37 36 36 35 44 54 61 64 64 64 64 64 66 69 72 74 74 73 72 72 72 73 74 73
71 70 69 67 65 64 62 59 59 55 39 26 21 22 23 24 24 24 23 21 20 20 21 21 22 23 26 27 27 26 25 23 19 15 13 12 11 11 10 11 13 14 17 20 22 25 27 30 32 34 34 37 38 40 41 40 38 37 37 37 36 36 35 35 36 36 37 37 38 38 39 40 41 42 42 42 41 40 38 36 35 34 34 35 47 58 61 61 61 61 63 65 68 71 73 73 71 70 71 72 73 73 73
70 69 67 65 65 64 62 60 60 54 34 25 22 23 25 25 25 25 23 21 20 20 20 21 22 23 26 26 26 25 24 21 17 14 12 12 12 11 11 11 11 12 14 17 20 23 27 31 33 34 35 37 39 39 36 33 31 29 28 31 33 35 36 36 37 37 38 38 38 39 39 40 41 41 41 40 39 38 37 36 35 34 34 33 41 51 57 57 58 59 63 65 68 70 72 71 70 69 69 71 72 72 73
70 67 65 65 64 64 62 61 60 53 32 25 23 25 27 27 26 25 24 22 20 19 19 20 22 24 25 25 25 24 22 18 15 13 12 12 12 12 11 12 12 12 12 14 17 21 26 31 34 35 35 35 35 34 30 27 25 25 25 29 33 36 37 37 38 38 38 38 39 39 40 41 40 40 39 38 37 36 36 36 35 35 35 35 37 43 53 54 55 57 62 65 67 69 69 69 68 68 68 69 70 71 72
69 66 65 64 64 63 62 63 61 53 32 25 25 27 29 28 27 26 24 23 21 19 17 19 21 23 25 25 24 22 19 15 13 12 12 12 12 13 12 14 14 14 14 15 18 22 28 32 34 35 34 33 32 29 24 23 24 25 27 31 34 36 36 37 37 37 38 38 39 39 40 39 38 37 36 35 35 35 36 36 36 36 36 36 36 38 45 45 46 50 60 64 65 66 66 67 67 67 68 69 69 70 71
69 67 65 64 64 63 62 63 61 53 34 26 25 26 28 28 27 26 25 24 22 19 16 17 19 21 23 23 22 19 16 12 11 12 12 11 13 14 13 16 18 20 20 21 23 25 30 33 34 33 32 31 28 24 21 23 25 27 30 33 34 34 34 34 35 35 36 37 37 37 37 36 35 33 33 34 35 36 36 36 36 36 36 36 36 36 37 37 36 40 56 61 63 63 63 64 66 67 69 69 69 70 71
70 68 66 65 64 63 62 63 61 54 36 28 24 25 28 28 27 27 26 26 23 19 16 16 18 19 21 20 18 15 12 10 11 12 13 11 12 14 13 17 22 27 28 28 28 30 32 33 33 32 31 28 23 20 21 23 25 27 29 30 30 31 31 31 32 33 34 34 34 34 33 32 31 31 32 33 35 36 36 36 36 36 36 36 36 35 35 34 33 37 52 57 60 60 61 62 64 67 70 70 71 71 72
70 69 67 65 64 63 62 63 61 54 38 28 25 26 30 30 29 29 28 28 25 20 16 16 16 18 19 17 15 12 9 9 12 14 14 12 14 17 18 17 23 30 35 33 33 33 34 33 32 30 26 21 18 18 22 23 23 23 24 26 26 27 28 29 30 31 32 31 31 31 30 30 30 31 32 34 35 35 35 35 35 35 35 35 34 34 33 33 33 36 46 53 56 57 59 60 62 66 70 71 71 71 71
71 70 67 66 65 64 62 63 61 54 38 29 27 29 34 33 32 31 30 29 25 21 16 16 16 16 17 15 13 11 9 10 13 14 12 13 16 22 27 21 20 25 36 36 35 34 34 33 31 26 18 15 16 19 22 22 22 22 23 24 25 26 28 29 30 30 31 30 30 29 29 29 30 31 33 34 34 34 34 34 34 34 34 33 33 32 32 32 33 35 39 47 51 53 54 57 61 65 68 68 68 68 68
72 71 69 67 66 65 63 63 60 53 37 30 30 33 36 35 34 33 31 29 26 21 17 15 16 16 14 13 11 10 10 11 13 15 14 15 17 20 26 27 26 28 38 35 36 38 37 37 35 29 14 15 17 19 21 21 21 21 22 23 25 26 28 28 29 29 29 28 28 27 27 28 30 32 33 34 34 34 34 33 33 33 32 32 32 32 32 32 33 34 36 39 40 41 41 51 59 64 65 65 64 64 64
73 72 70 68 67 66 64 64 60 52 37 31 31 34 37 36 35 34 31 29 25 22 18 15 14 15 15 13 11 10 10 13 14 14 13 14 17 20 23 37 38 36 41 31 31 32 30 24 18 14 13 15 17 18 18 19 20 21 22 23 24 25 27 27 26 26 25 24 24 24 25 27 29 31 33 33 33 33 33 32 32 31 31 31 31 31 32 32 33 34 36 37 39 38 35 44 54 61 62 61 61 61 62
74 73 72 69 68 67 65 65 60 50 36 30 29 31 35 35 34 33 31 28 25 22 18 15 14 14 15 12 11 11 13 15 15 15 12 13 18 23 28 52 61 63 64 44 32 26 23 25 24 22 18 17 17 18 18 20 21 22 22 22 22 23 23 22 21 20 20 20 21 22 24 26 28 30 32 32 32 32 31 31 30 30 30 30 31 31 32 32 33 34 35 36 37 38 37 40 50 58 58 57 58 60 61
76 75 73 71 69 68 66 66 60 49 36 29 27 29 32 32 31 30 28 27 24 22 18 15 14 14 14 12 12 12 14 14 15 16 13 12 15 23 34 71 79 69 47 40 36 31 27 35 36 32 21 20 20 20 20 21 22 23 22 21 20 19 18 17 17 17 18 19 21 22 24 25 26 27 28 29 29 29 29 29 29 29 29 30 31 31 32 33 33 34 34 35 36 36 35 39 48 55 55 56 57 59 60
78 77 75 72 70 69 67 67 60 48 35 29 28 29 30 29 29 28 27 26 25 22 19 16 15 14 14 13 12 12 15 16 17 16 14 13 13 16 21 42 44 38 34 34 33 34 38 48 50 45 29 25 22 21 21 22 23 24 24 22 21 19 18 18 18 19 19 20 21 21 22 23 24 24 25 26 26 27 27 28 29 29 30 30 31 32 32 33 33 33 34 35 35 35 34 41 47 52 54 57 59 60 60
80 79 76 73 71 69 68 67 59 48 35 30 28 29 30 29 29 28 28 27 25 23 19 16 15 14 14 13 12 11 13 15 15 15 14 14 15 16 18 24 33 39 31 35 35 37 47 54 47 34 26 27 25 23 23 24 25 26 26 24 22 20 19 19 20 21 21 21 20 20 20 21 22 23 24 25 26 27 28 29 30 30 31 31 31 32 32 33 33 34 34 35 35 35 34 42 48 53 55 59 62 63 62
81 80 77 74 72 70 68 67 59 48 35 30 29 30 31 31 30 29 28 27 26 23 19 17 15 14 14 13 11 10 10 12 13 14 15 16 18 20 20 20 24 27 27 34 34 36 50 54 48 40 37 33 30 28 26 27 28 29 28 25 23 21 21 21 21 21 22 21 21 19 18 19 21 23 25 26 28 29 30 30 30 31 31 31 31 32 32 33 33 34 35 36 36 36 35 46 53 56 58 61 63 64 65
82 80 78 75 72 70 68 67 60 50 36 30 30 31 33 32 31 29 28 27 26 23 19 17 16 15 14 13 12 10 8 8 10 12 15 19 23 25 27 24 23 25 34 34 31 31 38 46 53 57 53 39 30 28 31 30 30 29 28 26 24 23 22 22 22 23 23 23 22 21 20 20 22 24 26 28 30 31 31 31 30 30 31 31 31 32 32 33 34 35 36 37 37 38 39 49 57 61 62 63 64 64 66
82 81 78 75 72 70 68 67 61 51 37 31 30 32 34 32 30 29 29 28 26 23 19 17 16 15 14 13 12 11 9 7 6 8 12 21 28 31 34 33 32 32 35 36 35 33 32 36 51 62 53 44 37 32 28 30 31 30 28 26 25 25 24 24 24 25 25 25 24 23 22 21 22 24 27 30 31 32 32 31 31 30 30 31 31 32 33 34 35 36 37 38 39 41 45 53 59 62 63 64 64 64 64
83 81 78 75 72 70 68 66 61 51 38 31 30 31 32 31 30 30 30 29 27 23 19 17 16 15 14 13 12 11 9 7 6 6 8 16 25 32 38 39 38 37 36 36 36 36 36 35 34 35 41 58 54 43 40 36 33 30 26 27 28 29 28 28 27 27 27 27 26 24 23 23 23 25 28 31 32 33 32 32 31 31 31 31 32 33 34 35 36 37 38 39 41 45 49 54 58 61 62 64 64 63 63
Wind_Speed
12 12 12 12 11 11 11 11 10 10 9 9 8 8 8 8 8 8 8 8 8 8 8 8 8 8 8 9 9 9 9 10 10 10 10 10 10 9 7 5 4 4 4 4 5 5 5 6 7 7 7 7 7 7 7 7 8 8 8 8 8 8 8 9 10 10 10 9 9 8 8 8 8 8 8 8 8 8 8 9 9 9 9 9 9 9 9 8 8 8 7 7 7 7 7 7 7 8 8 8 8 8 7
12 12 11 11 11 11 10 10 9 9 8 8 8 8 7 7 7 7 7 7 7 7 7 7 7 8 8 8 8 8 8 9 9 10 10 11 11 10 9 7 4 3 2 2 3 3 4 5 6 6 6 7 7 7 7 7 7 8 8 9 9 10 10 10 10 10 9 9 8 8 8 8 7 8 7 7 7 7 7 8 8 8 8 9 9 9 9 9 9 8 8 8 7 7 6 6 6 7 7 7 8 8 8
12 12 11 11 11 10 10 9 8 8 7 7 7 7 7 7 6 6 6 7 7 7 7 7 7 7 7 7 7 7 7 8 9 9 10 11 11 11 10 9 6 4 2 1 1 2 3 4 5 5 6 6 6 7 7 7 7 8 9 10 10 11 11 11 10 10 9 8 8 8 8 8 7 7 7 7 7 7 7 7 7 7 7 8 8 8 8 9 9 9 9 9 8 7 7 7 6 6 6 6 7 7 7
12 12 11 11 10 9 9 8 8 7 7 7 6 6 6 6 6 6 6 6 6 6 6 6 6 6 6 6 6 7 7 8 9 9 10 11 11 11 11 10 9 7 4 2 1 2 3 3 4 5 5 6 6 6 7 7 7 8 9 10 11 11 11 10 10 10 9 8 8 8 8 8 8 7 7 7 7 7 7 7 7 7 7 7 7 8 8 8 8 8 9 9 9 9 8 8 8 7 6 6 6 6 6
12 11 11 10 9 9 8 7 7 7 6 6 6 6 6 6 5 5 5 6 6 6 5 5 5 5 5 6 7 7 7 7 8 9 9 10 11 11 11 11 10 9 7 5 3 2 3 3 4 4 5 5 5 5 6 7 8 9 10 11 10 10 10 10 10 10 9 8 8 8 8 8 8 8 8 7 7 7 7 7 7 7 7 7 7 7 7 7 7 7 8 8 8 9 9 9 9 8 8 7 6 6 5
11 11 10 10 9 8 7 7 6 6 6 6 5 5 6 5 5 5 5 5 5 4 4 4 4 5 6 6 7 7 7 7 7 8 9 10 10 11 11 11 11 10 8 7 5 4 3 3 3 3 4 4 5 5 6 7 9 10 11 11 10 9 9 10 10 10 10 9 9 8 8 8 8 8 8 8 8 8 8 8 8 8 8 8 7 7 7 7 7 7 7 7 8 8 8 9 9 9 9 8 8 8 7
11 11 10 9 8 8 7 6 6 6 6 5 5 5 5 5 4 4 4 4 4 4 4 4 4 5 6 6 7 7 7 7 7 8 8 9 10 10 11 11 11 10 9 8 7 6 5 4 3 4 4 4 4 5 6 7 9 11 12 11 9 9 9 10 11 11 10 10 9 9 8 8 8 9 8 8 8 8 8 9 9 9 9 8 8 8 8 8 8 8 7 7 7 7 7 8 8 9 9 8 9 9 9
11 11 10 9 8 7 6 6 6 6 6 5 4 4 5 4 4 4 4 3 3 4 5 5 6 6 7 7 7 7 7 7 7 7 8 8 9 10 10 11 11 10 10 9 8 8 7 6 5 4 4 4 4 5 6 8 10 11 11 11 10 10 10 10 11 11 11 11 10 9 9 9 9 9 9 9 8 8 9 9 9 9 9 9 9 9 9 8 8 8 8 8 7 7 7 7 7 8 8 8 8 9 9
11 10 9 8 7 7 6 6 6 6 5 5 4 4 4 4 4 3 3 3 3 3 4 6 7 8 8 8 7 7 7 6 7 7 7 8 8 9 9 10 10 10 10 9 9 8 7 7 6 5 5 4 4 5 6 8 9 10 11 11 11 11 10 9 10 11 12 11 11 10 9 9 9 9 9 9 9 9 9 9 9 9 9 9 9 9 9 9 9 9 8 8 8 8 8 7 7 8 8 8 8 9 9
10 9 9 8 7 6 6 6 6 6 5 4 3 3 3 3 3 3 2 2 2 3 4 6 7 7 7 7 7 7 6 6 7 7 7 7 7 7 8 9 9 9 9 8 8 8 7 7 7 6 6 5 5 5 7 8 9 9 10 10 10 10 9 9 10 11 12 12 12 11 10 10 9 9 9 9 9 9 9 9 9 9 9 9 9 9 9 9 9 9 9 9 8 8 8 8 8 8 8 8 8 8 8
9 9 8 8 7 7 6 6 6 5 5 4 3 3 2 2 2 2 2 3 3 4 4 5 6 6 6 6 6 6 6 6 6 7 7 7 7 7 7 8 8 9 8 8 8 8 8 8 8 8 7 6 6 6 7 8 8 9 9 9 10 9 8 8 10 11 12 12 12 11 10 10 10 9 9 9 9 9 9 9 9 9 9 9 9 9 9 9 9 9 9 9 9 9 8 8 8 8 8 8 8 8 8
8 8 8 8 7 6 6 5 5 5 5 4 3 3 2 1 1 2 2 3 4 4 5 6 6 6 6 6 6 6 6 7 7 7 7 7 7 6 5 6 7 8 8 8 8 8 8 9 9 9 8 7 7 7 8 8 9 9 9 9 9 8 7 8 10 11 12 12 12 11 11 10 10 10 9 10 9 9 9 9 9 9 9 9 9 9 9 9 9 9 9 9 9 9 9 9 9 9 9 9 9 8 8
8 8 7 7 7 6 5 5 5 5 4 4 4 4 3 3 2 2 3 3 4 4 5 6 6 6 6 6 6 7 7 8 8 8 8 7 6 5 5 5 6 7 8 8 8 8 8 9 9 9 9 9 9 10 10 9 9 9 9 9 8 7 7 8 10 11 12 12 12 11 11 10 10 10 10 10 10 10 10 10 9 9 9 9 9 9 8 8 9 9 9 9 9 9 9 9 9 10 9 9 9 9 8
7 7 7 7 6 6 5 5 5 5 5 5 5 5 4 4 4 3 3 4 4 4 5 5 6 6 6 6 7 7 8 9 9 9 8 7 6 5 4 4 5 6 8 8 8 8 8 9 9 9 10 10 11 12 11 10 9 9 9 8 7 7 8 9 10 11 12 12 12 11 11 10 10 10 10 10 10 10 10 10 10 10 9 9 9 9 9 9 8 8 8 8 9 9 9 9 9 10 10 10 10 9 9
7 7 7 6 6 6 5 5 5 5 5 5 5 5 5 4 4 4 3 4 4 4 5 5 5 6 6 7 8 8 9 10 10 9 7 5 4 4 3 3 5 6 7 8 8 9 9 9 9 9 10 11 12 13 12 10 9 9 9 7 6 7 8 9 10 11 12 12 12 12 11 11 10 10 10 10 10 10 10 10 10 10 10 10 9 9 9 9 9 9 8 8 9 9 9 9 9 9 10 10 10 10 9
8 7 7 6 6 6 5 5 5 5 5 5 5 5 5 4 4 4 3 3 4 4 5 5 5 6 6 7 8 8 9 9 9 7 6 5 4 4 4 4 5 6 8 8 9 9 9 9 9 9 10 11 12 13 12 10 9 9 9 8 7 7 8 9 10 11 12 13 12 12 11 11 10 10 10 10 10 10 10 10 10 10 10 10 10 10 9 9 9 9 9 9 9 9 9 9 9 9 9 10 10 10 10
8 8 7 6 6 6 5 5 4 4 5 5 5 5 5 4 4 4 4 4 4 5 5 5 5 6 6 6 7 7 8 7 7 6 6 6 6 5 5 5 6 6 7 8 9 9 9 9 9 9 10 11 12 12 12 10 10 9 9 8 7 7 8 9 10 11 12 13 13 12 12 11 10 10 10 10 10 10 10 10 10 10 10 10 10 10 10 9 10 10 10 9 9 9 9 9 9 9 9 9 9 9 9
8 8 7 6 6 5 5 4 4 4 4 5 5 5 5 4 3 3 4 5 5 6 6 6 6 5 5 5 6 6 6 6 6 6 6 6 6 6 6 5 5 6 7 8 8 8 8 8 9 9 10 10 11 11 11 10 10 10 10 9 8 8 9 10 10 11 12 13 13 13 12 11 11 10 10 10 10 10 10 10 10 10 10 10 10 10 10 9 10 10 10 10 10 10 10 10 9 9 9 9 9 9 9
8 8 7 6 5 5 4 4 3 3 3 4 5 5 5 4 3 2 3 4 6 6 7 6 5 4 4 4 4 4 5 5 5 5 5 5 5 5 5 5 5 5 6 7 8 8 8 8 9 9 10 10 10 11 10 10 9 9 9 9 8 8 9 9 10 11 12 13 14 13 12 11 11 10 10 10 10 10 10 10 10 10 10 10 10 10 10 10 10 10 10 10 11 11 11 11 10 10 10 10 10 10 11
8 8 7 6 5 4 4 3 3 2 2 3 3 4 4 4 3 2 2 3 5 6 6 5 4 3 2 3 3 4 4 4 4 5 5 5 4 4 4 4 4 5 5 6 7 8 8 8 9 9 9 10 10 10 10 9 9 9 9 8 8 8 9 9 10 11 13 14 14 13 11 11 10 10 10 10 10 10 10 10 10 10 10 11 10 10 10 10 10 10 10 10 11 11 11 11 11 11 11 11 11 11 11
8 8 7 6 5 4 4 3 2 2 1 1 2 3 3 4 3 2 1 2 3 4 4 4 3 3 2 2 3 3 4 5 5 6 6 5 5 4 4 4 4 4 5 6 7 7 8 8 9 9 9 10 10 10 9 9 9 9 8 8 8 8 9 9 10 12 13 14 13 12 11 10 10 10 10 10 10 10 10 10 10 10 10 10 10 10 10 10 10 10 10 10 10 10 11 11 11 11 11 11 11 11 11
9 8 7 6 5 5 4 4 3 2 1 0 1 2 3 4 3 1 1 1 2 3 3 4 4 3 3 3 4 5 6 6 6 6 6 6 6 5 5 4 4 4 5 5 6 7 8 8 9 9 9 10 10 9 9 9 8 8 8 8 8 8 9 9 11 12 13 14 13 11 10 10 10 10 10 10 10 10 10 10 10 10 10 10 10 10 10 10 10 10 10 10 10 10 10 10 10 10 10 10 11 11 11
9 8 7 6 5 5 5 4 3 2 1 1 1 2 3 3 2 2 2 2 2 2 3 3 3 3 4 5 6 6 6 6 6 6 6 6 5 5 4 4 4 4 5 5 6 7 8 9 9 10 10 10 10 9 8 8 8 8 8 9 9 9 9 10 11 12 13 13 12 10 10 10 10 10 10 10 10 10 10 10 10 10 10 10 10 10 10 10 10 10 10 10 10 10 10 10 10 10 10 10 10 10 10
10 9 7 6 6 5 5 5 4 3 2 2 1 2 3 3 3 3 3 3 3 2 1 2 3 5 6 6 6 6 5 5 5 5 5 5 5 5 5 5 5 5 6 6 7 7 8 9 10 10 10 10 10 9 8 8 8 8 8 9 9 9 9 10 11 13 13 12 11 10 10 10 10 10 10 10 10 11 11 11 11 11 11 11 10 10 11 11 11 10 10 10 10 10 10 10 10 10 10 10 10 10 10
11 10 8 6 6 6 5 5 4 3 3 3 2 2 2 2 2 3 3 3 2 1 1 3 4 5 6 6 5 4 4 4 5 5 5 5 6 6 6 7 7 7 7 7 7 8 9 9 10 10 11 10 10 9 8 8 8 8 9 9 9 9 9 11 12 13 12 10 10 10 10 10 10 11 11 11 11 11 11 11 11 11 11 11 11 11 11 11 11 11 10 10 10 10 10 9 9 10 10 10 10 10 10
11 10 8 6 6 6 6 5 5 4 4 3 3 2 1 2 2 2 2 1 0 1 3 4 5 5 4 3 3 4 4 5 6 6 6 6 6 7 7 8 8 8 8 8 8 8 9 10 10 11 11 11 10 8 7 8 8 8 9 9 9 9 10 11 13 13 11 9 9 10 10 10 11 11 12 12 12 12 12 12 12 11 11 11 11 11 11 11 11 11 10 10 10 10 10 10 9 9 9 10 10 10 9
12 10 8 7 6 6 6 6 6 5 5 4 4 3 3 2 2 2 1 2 2 3 3 4 4 3 2 3 4 6 7 7 7 7 7 7 7 7 8 8 8 8 8 8 8 8 9 9 10 11 11 11 9 8 7 7 8 8 8 8 8 9 10 12 13 12 9 9 9 10 11 11 12 12 12 12 12 12 12 12 12 11 11 11 11 11 11 11 11 11 11 11 10 10 10 10 10 10 9 10 10 10 10
13 11 9 7 6 6 6 7 6 6 5 5 4 4 4 3 3 3 3 4 4 4 3 3 2 1 3 4 6 7 8 8 8 8 8 8 8 8 8 8 8 8 8 8 8 8 8 9 10 10 10 9 8 6 6 7 8 8 8 8 8 9 11 13 13 11 8 8 9 10 11 12 12 12 12 12 12 12 12 12 12 12 11 11 12 12 11 11 11 11 11 11 11 10 11 10 10 10 10 10 10 10 10
14 11 10 8 7 7 7 8 8 7 6 6 5 5 5 4 4 4 4 4 4 3 2 1 1 2 4 5 6 7 8 8 9 9 9 9 8 8 8 8 8 8 8 8 7 7 8 8 9 10 10 8 7 6 6 7 8 8 8 8 9 10 12 12 11 9 7 8 9 11 12 12 12 13 13 13 12 12 12 12 12 12 12 12 12 12 12 12 12 12 11 11 11 10 11 10 10 10 10 10 10 10 10
14 12 11 10 9 8 8 9 8 8 7 6 6 6 5 4 4 4 4 3 2 2 1 1 2 3 3 4 5 6 7 8 8 9 9 8 9 9 10 10 9 9 8 7 7 7 7 8 9 9 9 8 7 6 7 7 8 8 8 8 9 11 12 12 10 8 7 8 10 11 12 13 13 13 13 13 13 13 12 12 12 12 12 12 12 12 12 12 12 12 12 12 12 11 11 10 10 10 10 10 10 10 10
14 13 12 11 10 9 9 9 9 8 8 8 7 6 5 4 4 3 3 2 2 2 2 2 2 2 3 4 5 6 6 7 8 8 8 9 10 11 11 11 10 9 7 6 6 6 6 7 8 9 8 7 7 6 7 7 8 8 8 9 10 11 11 11 10 9 8 10 11 12 12 13 13 13 13 13 13 13 13 13 12 12 12 12 12 12 12 12 12 12 12 12 12 11 11 11 11 10 10 10 10 10 10
14 14 14 12 11 10 10 9 9 9 9 9 8 7 5 4 3 3 3 3 3 2 2 2 2 2 2 3 4 5 6 6 7 7 8 9 10 12 12 11 9 8 6 5 4 4 5 6 8 8 8 7 6 6 7 7 7 8 8 9 10 11 11 10 10 9 10 11 12 13 13 13 13 13 13 13 13 13 13 13 13 13 13 12 12 12 12 12 12 12 12 12 12 12 12 11 11 11 10 10 11 11 11
14 15 15 13 12 11 11 10 9 9 9 9 8 7 5 4 4 3 4 4 3 3 3 2 2 2 2 3 3 4 5 5 6 7 8 9 11 12 11 10 8 7 5 4 4 5 5 7 7 8 8 7 6 6 6 6 7 7 8 9 10 10 10 10 10 10 11 12 13 14 14 13 13 12 13 14 14 14 14 14 13 13 13 13 12 12 12 12 12 12 12 12 12 12 12 12 12 11 11 11 11 11 11
15 15 14 13 12 12 11 11 10 10 9 9 8 7 5 5 4 5 5 4 4 3 3 3 3 2 2 2 3 3 4 5 6 7 8 10 11 11 10 9 7 6 5 5 5 6 6 7 7 8 8 7 6 5 5 5 6 6 7 8 9 9 9 10 10 11 11 12 14 15 15 14 13 12 13 14 14 15 15 15 15 14 13 13 13 12 12 12 12 12 12 12 12 12 12 12 12 12 11 11 11 11 12
16 15 14 13 13 13 12 11 11 10 9 8 7 6 5 5 6 6 5 4 4 3 3 3 2 2 2 2 2 2 3 4 5 7 8 10 11 11 10 7 6 5 5 5 6 6 7 7 7 8 8 8 6 5 4 4 4 5 6 7 7 8 8 9 10 11 11 12 14 15 15 14 13 12 13 13 14 15 16 16 16 15 14 14 13 13 13 12 12 12 12 12 12 12 12 12 12 12 12 12 12 12 12
16 15 15 14 14 14 13 12 11 10 8 7 6 6 6 7 7 6 5 4 3 2 2 2 2 2 1 1 1 1 2 4 5 7 8 10 11 11 9 7 5 4 4 5 6 6 7 7 7 8 9 8 6 4 3 3 3 4 5 5 6 7 7 8 9 10 11 12 13 15 15 14 13 12 13 13 14 15 16 16 16 16 15 14 14 14 13 13 13 13 13 12 12 12 12 12 12 12 12 12 12 12 12
17 16 16 16 15 15 14 13 12 10 8 7 6 7 7 8 8 7 5 4 3 2 1 1 2 1 1 0 0 1 2 3 5 7 9 10 11 10 9 7 4 3 3 4 5 6 6 6 7 8 9 8 6 4 3 3 3 4 5 5 6 6 7 8 9 10 11 12 13 14 15 14 14 13 13 13 13 15 16 16 16 16 15 15 14 14 13 13 13 13 13 13 13 12 12 12 12 11 11 11 11 12 12
18 17 17 17 16 16 15 14 13 11 9 8 7 8 8 8 8 7 5 4 3 2 1 1 1 2 1 1 1 1 2 4 6 8 10 11 11 11 9 7 5 3 3 4 5 5 6 6 7 8 9 7 6 5 4 4 4 4 5 6 6 7 7 8 9 10 11 12 13 14 14 14 14 13 13 12 13 14 16 16 16 16 15 15 14 14 14 14 14 14 13 13 13 13 12 12 12 11 11 11 11 11 11
18 18 18 18 17 16 16 15 13 11 10 8 8 9 9 9 8 7 5 4 3 2 1 0 1 2 2 1 1 2 3 5 7 9 10 11 12 11 9 7 5 3 3 3 4 5 5 6 7 8 8 7 6 5 5 4 4 5 6 6 6 7 8 8 9 10 11 11 12 13 14 14 14 14 13 13 13 14 16 17 17 16 15 15 14 14 13 14 14 14 14 13 13 13 12 12 12 11 11 11 11 11 11
19 18 19 19 18 17 16 15 14 12 10 9 9 9 9 9 8 6 5 4 3 2 2 1 1 1 1 1 1 2 4 6 7 9 10 11 11 10 8 6 4 3 3 3 3 4 5 6 7 7 7 6 6 5 5 5 5 5 5 6 6 7 8 9 9 10 11 11 12 13 14 14 14 14 13 13 14 15 17 17 17 17 16 15 14 14 13 14 14 14 13 13 13 13 13 12 12 12 11 11 11 11 11
19 19 20 20 19 18 17 16 14 13 11 10 10 10 9 8 7 6 5 4 3 3 2 1 1 1 1 1 2 3 4 6 8 9 10 10 10 9 8 6 4 3 2 2 3 4 5 6 6 7 6 6 5 5 5 5 5 5 5 6 7 8 8 9 9 10 11 11 12 13 13 14 14 14 14 14 15 16 18 18 18 17 16 15 14 14 14 14 14 14 13 13 13 13 13 13 12 12 12 11 11 11 11
20 20 20 20 20 19 18 16 15 13 12 11 10 10 9 8 7 6 5 4 4 3 2 1 1 1 1 1 2 3 5 6 7 9 9 10 10 8 7 5 4 3 2 2 3 4 5 5 6 6 5 5 4 4 4 4 4 4 5 6 7 8 8 9 9 10 10 11 12 13 13 13 13 13 14 15 16 17 19 19 19 18 17 15 14 14 14 14 14 14 13 13 13 13 13 13 13 12 12 12 12 11 12
21 21 21 21 20 19 18 17 15 14 12 12 11 11 10 9 7 6 5 4 4 3 2 1 1 1 0 1 2 4 5 6 7 8 9 10 9 7 6 5 3 3 2 2 3 3 4 5 5 5 4 3 3 3 3 4 4 4 4 5 6 7 8 8 9 9 10 11 12 12 13 13 13 13 14 15 16 17 18 19 19 18 17 15 14 14 14 14 14 14 14 13 13 13 13 13 13 13 12 12 12 12 11
22 22 22 21 21 20 18 17 16 14 13 12 12 11 10 9 8 6 5 4 4 3 3 2 1 1 1 1 2 4 5 6 7 8 9 9 8 7 6 5 3 2 2 3 3 3 4 4 4 3 2 1 2 2 3 3 4 4 4 5 5 5 6 7 8 9 10 11 11 12 12 12 12 13 14 15 16 17 18 19 19 18 17 16 15 14 14 14 15 14 14 13 13 13 13 13 13 13 12 12 12 12 12
23 23 22 22 21 20 19 18 16 15 14 13 13 12 11 10 8 7 6 5 4 4 3 3 2 1 1 1 2 3 4 6 7 8 9 9 8 7 7 5 4 2 3 3 4 4 4 5 4 3 2 1 1 2 3 4 5 5 5 4 4 4 5 6 7 8 9 10 11 11 11 12 12 13 14 14 15 16 17 18 18 17 17 16 15 14 14 14 15 14 14 13 13 13 13 13 13 12 12 12 12 12 12
24 24 23 22 21 21 19 18 17 16 15 14 14 13 12 10 9 7 6 5 4 4 4 3 3 2 1 1 2 3 4 6 7 8 8 8 8 7 7 6 4 3 3 4 4 5 5 6 5 4 3 2 1 2 4 5 5 5 4 3 3 3 4 5 6 7 8 8 9 10 10 11 12 13 13 14 15 16 16 17 17 17 17 16 16 15 14 14 14 14 14 13 13 13 13 13 12 12 12 12 12 12 12
25 25 24 23 22 21 20 19 18 17 16 15 15 14 13 11 9 8 6 6 5 4 4 4 3 2 1 1 2 3 4 6 7 8 8 8 7 7 8 7 5 4 4 5 6 6 7 7 6 5 3 2 2 2 4 5 5 4 3 4 4 3 3 4 5 6 6 7 7 8 9 10 11 12 13 14 14 15 16 16 16 16 16 16 17 16 15 15 15 14 13 13 13 13 13 13 12 12 12 12 12 12 12
26 25 25 24 23 22 21 20 19 18 17 16 15 15 13 11 9 8 6 6 5 5 5 4 4 3 2 1 2 3 4 5 6 7 8 8 7 7 7 7 6 5 6 7 7 8 8 8 7 5 3 1 2 3 4 5 4 4 4 4 4 3 3 4 5 5 5 6 6 7 7 9 10 11 12 13 14 14 15 15 15 16 16 16 16 17 17 17 16 15 13 13 13 13 13 13 12 12 12 12 12 12 12
26 26 25 25 24 23 22 21 20 19 18 17 15 14 13 11 9 8 7 6 6 6 5 4 4 3 3 2 2 3 4 5 6 7 7 7 6 5 6 7 7 7 7 8 9 9 9 8 7 5 2 1 3 3 3 3 4 4 4 3 3 3 3 4 4 5 5 5 6 7 8 9 11 12 12 13 13 13 14 14 15 15 15 16 16 16 17 17 16 15 13 13 13 13 13 13 13 12 12 12 12 12 12
27 26 26 25 25 24 23 22 21 20 18 17 15 14 12 11 9 8 8 7 7 7 6 5 4 3 3 3 3 3 3 4 6 7 6 6 5 4 3 5 6 7 8 8 9 9 9 8 6 3 2 4 4 3 2 3 3 3 3 3 3 3 3 4 4 5 5 6 7 8 9 10 11 12 12 12 13 13 13 13 14 14 15 15 16 16 17 16 16 14 13 12 13 13 13 13 13 12 13 13 13 13 13
28 27 27 27 26 25 24 23 22 20 19 17 16 14 13 12 10 9 9 9 9 8 7 6 5 4 3 3 3 2 3 4 6 6 4 4 4 3 2 3 2 4 6 6 8 9 9 8 5 1 4 5 4 3 2 2 3 4 4 4 4 4 4 4 5 6 7 8 9 10 11 11 11 11 11 12 12 12 13 13 13 14 15 15 16 16 16 16 15 14 13 12 12 12 13 13 13 13 13 13 13 13 14
28 28 27 27 27 26 25 24 23 21 20 18 17 16 15 13 12 11 10 10 10 8 7 6 6 5 3 3 2 2 2 3 4 5 5 4 4 3 2 2 2 3 3 1 2 5 7 7 5 2 6 5 3 2 3 3 4 4 4 4 5 5 5 6 6 7 8 9 10 11 11 11 11 10 11 11 11 12 13 13 14 15 15 15 15 15 15 15 14 13 13 12 12 12 13 13 13 13 13 13 14 14 15
29 29 28 28 28 27 26 24 23 22 21 20 19 18 16 15 13 12 12 12 11 9 7 6 6 6 4 3 2 1 1 2 3 4 5 5 4 2 1 2 2 1 0 1 2 3 3 4 4 6 7 3 1 2 3 4 4 4 5 5 5 6 6 7 8 9 10 11 12 12 12 11 10 10 10 11 11 12 13 14 15 15 15 15 15 14 14 14 13 13 13 12 12 13 14 13 13 13 13 14 14 15 15
30 30 29 29 28 28 26 25 24 23 22 21 20 19 18 16 15 14 13 13 11 10 8 7 6 6 5 4 3 2 1 1 2 2 3 5 4 2 2 2 1 1 2 3 1 1 4 4 4 5 5 1 1 1 2 3 4 4 5 5 6 6 7 8 9 11 11 12 12 12 11 11 10 10 11 11 12 13 14 14 15 15 15 14 14 13 13 13 13 13 13 13 13 14 14 14 13 13 14 14 15 15 16
31 31 30 30 29 28 27 26 25 24 23 22 20 19 18 17 16 14 14 13 12 10 9 8 7 6 6 5 4 3 2 1 1 1 1 2 3 3 2 3 2 2 2 3 2 1 2 3 4 4 2 3 2 1 2 2 3 3 5 5 6 7 8 10 11 12 11 11 11 10 10 10 10 11 11 12 13 13 14 14 14 14 13 13 12 12 12 12 13 13 13 14 14 14 15 14 14 13 14 15 15 16 16
32 31 31 30 30 29 28 26 26 25 24 22 21 19 18 16 15 14 13 12 11 10 9 9 8 6 5 5 4 4 4 3 1 1 1 1 1 1 1 2 2 2 2 2 1 3 3 3 4 4 2 3 3 2 2 2 2 3 5 6 7 8 10 12 12 12 11 10 10 9 10 10 11 12 12 13 13 13 13 13 12 12 12 11 11 11 12 12 12 13 14 14 15 15 15 15 14 14 15 15 16 16 17
32 32 32 31 31 30 28 27 26 26 25 23 21 19 18 16 15 14 14 13 11 10 10 9 8 6 5 4 4 4 4 4 3 2 1 2 2 2 0 1 1 3 2 2 2 3 3 1 1 1 2 3 3 2 2 2 2 3 5 6 8 10 12 13 12 11 11 10 10 10 11 11 12 13 13 13 13 12 12 12 12 11 11 10 11 11 11 12 12 13 13 14 14 15 15 15 15 15 15 16 17 17 18
32 32 32 32 31 30 29 28 27 26 25 24 22 20 19 18 17 16 15 13 12 11 10 9 8 7 6 5 4 4 4 5 5 4 2 3 3 4 3 3 2 2 3 2 2 3 5 3 2 1 2 3 2 3 3 2 2 3 5 6 8 11 13 13 12 11 11 11 11 12 13 13 13 13 13 12 12 12 12 12 12 11 11 11 11 11 11 11 11 11 12 12 13 14 14 14 15 15 16 17 17 18 19
33 33 33 32 32 31 29 28 27 27 26 24 23 22 21 20 18 16 14 13 12 11 10 9 9 8 7 5 5 5 5 6 6 5 5 4 4 5 5 5 5 5 4 3 3 2 3 3 2 2 1 2 2 1 2 3 3 3 4 6 9 11 13 13 12 12 12 12 13 14 15 14 14 13 12 12 12 12 13 13 12 12 12 11 11 11 10 10 10 10 10 10 11 13 13 14 15 16 16 17 18 19 21
34 33 33 33 32 31 30 29 28 27 26 25 24 23 22 21 19 17 15 13 12 12 11 10 9 8 7 6 5 5 5 5 5 5 7 5 5 6 7 7 8 7 6 5 5 4 3 3 3 3 3 1 1 3 3 2 2 2 3 6 9 12 13 12 12 12 13 13 13 15 16 15 14 12 11 11 12 13 13 13 13 13 13 12 11 11 10 9 9 8 9 9 10 11 12 13 14 16 17 18 19 21 22
34 34 34 33 33 31 30 29 28 27 27 26 25 24 23 22 20 18 16 14 14 13 12 11 10 9 8 6 5 4 4 5 5 6 6 6 6 6 8 8 9 9 8 6 6 5 4 3 3 3 4 4 2 1 3 3 2 2 3 6 10 12 12 11 12 12 13 13 14 15 16 15 13 11 10 11 12 14 14 14 14 14 13 13 12 11 10 9 8 8 8 9 10 11 12 13 14 16 17 18 20 21 23
Wind_Direction
121 119 117 116 114 113 111 108 105 101 98 93 89 87 85 82 80 79 76 74 72 70 68 66 65 62 60 57 54 50 47 44 43 41 40 41 43 45 49 54 60 66 73 75 78 81 84 85 82 74 64 52 44 38 31 22 13 9 11 17 19 19 17 16 10 4 3 4 7 9 10 9 8 9 9 9 10 10 7 5 6 7 7 7 8 8 9 9 9 9 10 10 11 12 13 13 11 10 9 7 5 4 2
124 122 122 119 117 115 112 109 105 101 97 93 90 88 85 82 80 78 76 74 72 71 69 68 65 63 59 56 53 50 46 44 42 41 40 40 42 44 46 48 50 51 59 72 77 83 87 89 86 78 65 53 43 36 30 22 13 5 1 1 2 6 9 10 6 1 359 359 359 1 3 4 3 2 3 2 3 3 1 360 359 359 359 359 359 0 2 2 2 2 3 2 0 0 3 6 7 7 6 5 3 360 357
128 126 126 123 119 116 112 109 106 102 96 93 90 87 84 81 80 78 75 74 73 73 70 68 65 62 58 55 52 48 46 44 42 41 39 38 39 39 40 41 42 41 37 47 85 98 100 98 91 82 70 55 42 33 25 18 9 360 353 350 351 357 4 5 2 359 356 355 354 355 357 358 359 357 357 358 358 357 356 355 354 354 353 352 352 353 354 354 353 353 354 355 355 354 354 353 355 357 359 1 360 358 356
133 131 128 125 120 117 113 110 106 103 98 94 90 85 83 80 79 77 75 76 74 72 69 65 61 57 52 48 45 44 43 44 43 41 38 36 35 34 34 34 36 37 36 37 63 106 114 109 98 86 74 58 43 30 19 9 360 352 347 343 345 353 3 3 1 358 356 354 352 351 351 352 354 354 354 356 355 354 353 352 352 351 349 348 347 347 347 347 346 345 346 347 348 348 348 347 344 344 346 349 351 353 353
136 133 130 127 123 119 117 114 110 106 101 97 89 84 80 76 73 72 73 76 75 70 64 58 52 47 40 36 34 34 38 41 40 39 36 34 32 30 30 31 33 36 39 40 53 85 108 112 102 88 75 59 43 27 13 360 351 346 342 339 343 353 3 3 1 359 355 352 349 348 348 348 349 351 353 353 353 353 353 351 350 349 347 346 343 342 343 342 342 341 341 340 339 339 341 342 342 340 339 337 337 339 341
139 135 133 129 126 124 122 118 113 109 105 98 93 88 84 75 68 67 67 66 64 60 55 46 38 32 29 24 23 25 30 33 34 34 33 32 30 29 28 30 33 37 43 47 54 69 88 99 95 82 68 54 38 21 6 355 349 346 343 342 348 358 4 4 2 360 356 352 349 347 346 346 347 349 351 350 349 349 348 348 349 349 347 344 342 340 339 338 337 335 335 334 333 333 334 336 337 338 338 335 333 333 332
142 139 136 132 130 127 124 121 115 109 104 98 96 96 92 80 68 64 62 50 36 22 12 12 12 13 14 12 13 17 23 26 27 27 28 29 29 29 30 32 36 42 48 53 58 64 70 72 70 60 50 40 27 10 358 352 350 348 346 348 355 3 5 4 2 359 356 352 350 348 347 346 346 347 347 345 344 343 340 342 344 344 343 340 339 339 337 334 331 329 329 329 329 329 329 329 330 332 334 333 332 331 330
145 141 138 135 132 129 126 124 119 113 105 96 87 83 83 73 61 52 47 35 17 359 351 346 348 353 357 1 6 12 18 19 20 20 22 25 27 30 32 36 41 47 53 56 59 59 58 53 45 36 27 18 10 360 353 352 351 349 348 349 355 2 4 360 358 358 356 353 351 349 347 345 344 344 344 343 340 337 337 336 335 335 333 333 334 334 333 331 328 325 324 324 324 325 325 326 325 326 328 326 325 325 326
147 143 138 136 135 134 133 132 125 116 106 91 74 61 56 47 41 37 34 29 21 3 344 340 342 346 350 356 4 12 16 17 16 15 15 18 23 28 34 39 44 49 53 54 54 50 44 36 26 16 7 1 357 356 355 353 351 348 345 345 349 355 358 357 357 357 355 352 350 349 346 345 345 343 342 342 340 338 336 332 332 332 332 330 329 328 327 327 326 325 323 323 323 322 322 322 322 322 320 320 319 320 321
148 145 141 141 142 143 142 138 132 126 119 108 96 83 67 42 34 31 25 13 7 357 345 341 344 349 355 1 10 17 19 17 13 10 8 10 15 24 33 40 44 46 47 46 42 36 28 19 12 5 359 354 356 358 357 354 351 347 343 340 344 349 350 350 353 355 354 351 349 348 346 345 344 344 342 340 339 339 335 333 332 331 329 326 324 323 322 323 323 323 324 324 323 323 321 320 319 317 314 312 313 314 316
151 147 146 148 150 151 151 144 138 133 131 131 130 122 103 68 40 25 7 357 354 351 350 352 357 4 11 17 22 23 20 14 8 4 2 2 5 13 27 38 42 41 39 36 31 24 16 11 9 7 6 5 3 360 355 351 348 346 342 340 343 346 344 342 347 353 354 351 348 346 344 345 345 344 341 339 338 337 336 334 333 331 329 327 324 323 322 321 320 320 320 321 322 322 319 318 317 315 312 310 308 309 310
153 150 150 152 154 152 148 139 131 126 123 119 113 108 97 74 37 13 1 1 3 5 6 11 18 26 31 33 31 25 17 8 3 358 356 355 355 1 15 33 38 36 31 27 23 16 11 8 8 8 9 7 0 352 346 343 344 345 344 343 344 344 339 342 346 351 352 350 347 344 344 344 344 342 340 339 337 337 336 335 333 333 332 330 328 326 324 321 320 319 318 316 319 321 319 317 315 313 312 312 310 310 309
153 150 150 151 150 146 137 125 114 105 97 87 77 69 62 54 44 33 23 20 18 17 19 23 29 35 37 34 27 18 9 2 357 352 349 347 347 350 2 23 32 29 23 21 17 11 6 2 1 360 357 352 347 343 340 339 341 344 347 348 346 340 337 342 346 350 352 350 347 344 343 344 342 340 340 338 337 336 335 334 334 334 333 331 330 328 326 323 321 319 317 316 318 319 317 315 313 313 313 314 313 312 311
151 148 148 146 143 137 128 114 103 92 81 70 61 54 49 45 47 46 41 34 28 24 21 23 26 27 26 20 14 7 0 355 351 346 342 340 342 346 354 14 23 21 16 15 12 7 1 356 352 349 345 340 339 340 340 341 343 346 351 352 345 336 336 342 347 350 352 351 348 345 343 343 341 339 338 337 337 336 336 336 337 335 333 331 330 329 328 326 323 320 319 318 317 316 314 313 313 313 313 315 316 314 312
149 146 145 140 137 133 125 114 101 88 76 66 57 50 45 42 44 47 46 37 29 23 18 17 16 13 10 6 2 357 353 349 345 342 341 344 352 1 7 15 15 11 8 9 8 3 357 352 348 344 341 338 339 341 344 346 347 349 354 353 345 337 339 343 348 350 352 351 349 346 344 344 342 339 338 336 337 337 337 336 336 336 333 332 330 329 328 327 325 323 322 319 316 314 314 313 312 312 313 314 314 314 313
149 144 141 136 133 131 126 118 105 91 76 65 57 52 45 42 41 44 44 34 24 18 14 10 8 6 3 1 357 351 347 346 346 349 357 9 19 25 27 23 12 5 0 1 1 359 355 351 347 344 341 339 341 344 348 350 350 351 354 352 346 340 341 344 348 351 352 352 351 348 346 344 342 340 339 337 337 337 337 336 336 335 333 332 330 329 328 327 326 326 325 321 317 315 314 314 313 312 311 312 311 310 309
150 145 141 135 132 130 128 122 111 96 79 66 58 53 48 43 41 42 42 36 24 13 6 359 356 356 355 353 348 345 347 353 2 13 24 28 30 31 33 27 14 2 357 357 358 358 356 352 349 347 344 342 343 346 349 351 351 351 353 351 347 342 342 345 349 351 351 352 351 350 347 345 343 342 341 340 338 338 337 336 336 334 333 332 331 330 329 327 326 326 326 324 320 318 316 315 313 311 309 307 305 303 300
153 148 144 139 134 132 129 126 117 101 82 67 58 52 47 40 37 41 42 38 28 15 1 351 345 342 342 340 341 348 359 13 25 30 30 28 28 31 33 30 18 7 0 0 1 0 358 355 352 349 347 346 345 346 348 349 350 350 350 349 345 341 343 345 348 350 351 352 353 351 349 347 345 344 344 343 341 340 339 338 336 335 334 333 332 332 330 328 326 326 326 324 323 323 322 319 315 312 309 306 304 302 302
159 154 152 147 143 138 135 132 123 103 83 67 58 52 46 35 30 36 42 35 24 10 356 348 344 343 344 344 353 5 18 27 26 22 16 15 18 23 27 28 22 13 8 6 3 0 358 356 352 349 347 346 344 344 344 346 348 348 348 346 343 342 344 346 347 349 351 353 353 352 350 349 347 347 347 346 345 343 341 340 339 337 336 336 335 333 331 329 329 328 327 325 325 326 326 325 325 323 320 318 317 317 317
167 162 158 157 155 152 148 147 137 114 87 64 54 51 44 28 22 26 41 29 13 359 351 353 4 17 15 12 15 20 19 11 1 354 351 352 356 1 7 12 11 9 5 2 360 357 355 353 350 347 345 343 342 341 341 343 345 347 348 346 343 343 345 347 348 350 352 352 352 352 352 351 351 351 350 349 349 347 345 344 342 341 338 338 338 336 334 332 331 330 329 327 326 325 326 325 327 328 325 324 324 323 323
176 171 166 166 170 173 173 173 166 146 113 64 48 43 37 21 15 23 56 20 3 356 1 22 46 59 52 35 16 1 348 342 337 335 332 331 330 331 336 341 346 349 351 352 353 354 351 350 348 345 343 341 339 338 339 340 342 346 350 347 346 346 347 349 351 352 352 352 353 354 355 355 356 356 355 354 353 352 350 349 347 345 342 342 341 339 337 336 335 333 332 330 328 326 325 323 323 322 321 320 320 319 318
185 182 177 176 181 188 193 194 190 178 158 120 42 30 24 15 20 53 123 54 18 22 41 58 65 59 38 6 345 335 332 331 330 330 328 328 328 327 329 332 336 340 344 347 350 350 349 348 346 343 341 339 337 337 339 340 342 346 351 350 346 345 348 351 352 353 353 353 354 357 360 1 2 2 1 0 359 358 355 353 350 348 347 346 345 344 342 341 339 337 335 333 332 329 328 325 323 321 320 319 319 318 317
193 192 189 187 191 199 204 204 201 188 166 152 81 45 34 30 48 97 124 114 91 77 71 59 37 11 351 338 333 331 330 331 333 334 336 339 342 346 350 352 352 351 350 350 349 349 348 347 345 343 341 340 339 340 342 343 345 348 352 350 346 344 345 348 351 352 353 355 359 4 7 8 8 8 7 6 5 2 360 357 356 355 353 352 351 349 348 347 345 342 340 338 337 334 332 331 329 326 324 321 321 320 320
200 201 199 196 198 203 208 209 203 186 164 154 116 66 48 53 76 100 109 107 105 97 63 7 347 338 333 332 333 335 339 343 345 349 355 3 11 19 23 21 17 10 3 357 353 350 348 346 345 344 344 343 343 345 348 349 350 351 352 349 346 344 344 345 347 351 355 0 7 12 14 15 14 14 12 10 8 5 3 2 1 0 359 357 356 355 354 353 351 348 344 342 341 339 336 334 332 331 328 327 326 325 323
205 206 205 202 200 204 209 210 202 186 169 158 136 101 70 85 97 101 101 104 105 86 339 331 330 329 331 335 343 355 8 15 18 20 22 29 35 38 37 31 24 16 9 3 359 354 351 349 348 347 347 345 346 348 353 355 354 353 351 349 347 346 346 345 347 352 360 9 17 20 21 20 18 16 14 11 9 6 4 4 3 3 2 1 360 359 358 357 355 352 349 346 344 342 340 337 335 333 332 331 330 328 325
206 208 208 205 202 205 209 209 201 187 171 160 151 145 144 138 133 126 123 128 155 301 311 317 322 327 335 355 24 45 51 50 48 44 41 40 39 38 33 26 19 12 7 4 0 357 354 351 350 349 348 346 345 347 354 356 356 354 351 350 350 350 350 348 350 355 7 21 27 26 25 22 19 16 13 10 7 5 3 3 3 3 2 2 1 1 360 357 356 354 352 350 348 346 345 342 340 337 335 334 333 332 329
206 208 208 207 206 206 207 204 195 181 167 162 164 173 188 185 184 190 211 241 266 283 295 307 317 334 10 53 69 69 66 62 56 49 42 36 31 26 20 13 7 1 359 358 357 356 355 352 351 350 348 347 346 349 355 359 357 355 354 356 357 356 354 352 354 1 18 32 33 28 25 21 17 14 11 8 6 3 1 1 1 1 0 1 1 1 359 357 356 355 354 352 351 350 349 347 346 344 341 339 338 337 337
205 206 206 207 207 204 200 192 182 172 166 169 175 185 199 207 217 232 248 259 268 276 288 302 326 34 76 81 77 72 66 59 51 43 35 29 21 14 7 359 353 348 347 348 350 353 354 353 353 352 352 352 354 359 3 2 359 357 1 4 4 0 357 357 359 9 33 40 34 27 22 18 14 11 9 7 5 3 1 360 359 359 358 358 359 359 358 356 355 355 354 353 352 350 351 349 348 347 345 343 341 340 341
204 203 204 205 204 198 188 179 172 168 172 177 184 192 204 218 234 250 259 263 265 268 277 300 83 93 91 83 73 64 56 48 40 33 27 20 12 4 356 348 342 339 338 340 344 349 354 356 356 357 359 5 11 15 13 6 2 3 8 9 6 2 1 1 6 19 43 44 33 23 18 14 12 10 9 8 7 5 3 1 359 358 357 357 357 357 356 355 353 352 352 352 351 349 349 347 346 345 344 343 342 342 341
201 199 199 200 198 192 181 172 168 171 178 186 192 198 208 223 244 258 262 256 245 224 185 130 112 101 88 74 61 50 41 33 26 21 16 10 3 357 350 343 338 335 334 337 342 348 354 359 2 5 11 18 25 24 16 6 4 7 11 9 5 3 3 6 12 25 41 38 29 21 15 12 11 10 10 10 9 7 5 2 0 358 357 356 356 355 354 353 352 351 350 349 349 348 347 344 343 342 341 341 341 342 342
197 194 193 194 193 187 178 170 170 176 184 193 198 204 212 226 245 254 245 214 185 163 138 119 106 91 73 57 47 36 26 18 15 11 7 2 358 354 348 343 340 338 339 340 344 351 359 5 9 12 17 24 28 25 16 7 6 9 9 6 4 3 5 8 14 22 28 26 22 18 14 12 11 11 12 11 10 8 6 3 1 359 357 356 355 354 353 352 351 350 348 347 346 345 344 342 341 340 338 337 337 338 338
193 190 189 191 189 184 178 174 177 184 190 198 204 211 219 229 237 229 198 170 150 130 103 83 69 57 47 39 32 25 17 10 9 8 5 2 358 354 350 347 347 350 353 355 1 7 14 18 18 17 18 21 22 21 16 9 7 7 6 4 3 3 5 7 11 15 16 16 16 15 14 12 12 13 13 12 11 9 6 4 1 359 358 356 355 353 352 351 350 349 347 345 343 342 341 340 339 337 335 334 334 333 333
191 188 188 189 188 184 181 182 186 191 195 201 209 217 224 227 219 196 169 151 129 100 73 52 32 20 20 17 17 14 10 8 8 9 7 5 1 358 355 354 358 6 14 22 31 35 35 31 25 19 16 14 16 17 15 9 7 6 4 2 2 2 1 2 5 8 10 11 12 13 13 13 13 14 14 14 12 10 7 5 2 359 357 356 354 353 352 350 349 347 346 344 342 341 340 339 338 336 334 332 330 329 328
192 190 190 189 188 186 186 188 193 197 198 203 211 220 224 217 200 179 160 141 113 84 57 36 20 8 359 357 359 2 5 10 14 14 11 8 6 3 1 2 10 23 35 46 50 50 44 36 27 19 14 10 10 11 10 8 6 5 3 1 360 358 357 357 360 3 6 7 8 9 11 12 13 14 15 14 13 11 9 6 4 1 358 356 354 352 351 349 348 346 345 344 342 341 339 338 337 335 333 331 329 328 326
195 194 193 190 189 189 190 194 198 199 198 201 209 216 214 203 187 172 157 135 107 79 53 35 18 359 345 337 341 353 6 15 20 19 15 12 10 8 5 8 17 33 47 55 55 51 44 36 28 19 13 9 7 7 5 5 5 6 4 1 358 356 353 353 357 0 3 3 4 6 8 9 11 13 15 15 14 12 10 8 5 3 360 357 355 353 351 349 348 346 345 343 342 341 339 338 336 335 333 332 330 328 327
198 198 196 192 190 190 193 197 200 200 196 198 203 206 202 191 181 170 156 137 116 92 60 36 17 357 338 326 324 343 10 22 24 22 19 15 13 11 7 7 15 32 48 55 54 49 42 35 28 20 14 10 10 11 10 6 6 9 9 4 359 356 354 354 357 359 360 360 1 2 5 5 6 9 13 14 13 12 11 9 6 3 0 358 356 354 352 350 349 347 346 345 344 342 341 339 337 335 333 332 332 331 330
200 199 197 194 192 192 194 198 200 199 195 196 199 198 193 186 178 170 161 147 134 120 85 37 23 24 28 20 289 350 19 25 24 21 20 18 15 12 8 5 7 18 37 49 50 48 42 37 30 23 16 15 18 25 30 26 23 20 18 11 5 1 359 358 358 358 357 357 358 359 0 0 1 5 11 12 12 11 10 8 6 3 0 358 357 355 354 353 351 350 348 347 347 346 344 342 339 337 335 335 334 333 332
200 198 196 195 194 194 195 198 199 198 194 196 196 194 189 183 177 171 164 154 148 144 138 57 42 55 76 107 112 54 31 28 23 19 18 17 16 13 9 4 1 7 30 47 51 48 44 40 34 27 21 21 29 41 45 42 33 25 20 13 9 5 3 1 359 358 357 356 356 356 356 355 357 1 7 9 9 9 8 7 5 3 1 359 358 356 355 354 353 352 351 351 350 349 347 345 343 341 340 339 338 337 337
199 197 195 194 195 195 197 199 199 197 195 196 195 192 188 182 177 170 162 156 155 159 173 133 78 77 93 113 102 51 31 28 22 18 16 15 15 13 11 5 2 9 31 50 55 54 51 47 40 33 26 28 39 49 47 40 28 19 13 9 7 6 3 360 358 356 355 354 353 352 352 352 354 359 3 5 5 5 5 6 4 3 2 1 359 358 356 355 354 354 353 353 353 352 350 348 346 345 343 342 341 341 341
198 197 195 194 195 196 198 200 200 198 196 197 195 191 186 181 176 168 160 157 160 169 174 152 95 85 104 112 82 37 28 27 22 17 15 14 13 13 13 11 10 19 40 59 65 65 62 56 49 41 33 35 42 46 41 30 18 8 1 359 360 360 358 356 354 352 352 351 350 349 350 351 353 356 359 359 359 360 1 3 3 3 2 2 1 359 358 357 356 355 354 354 353 353 351 350 349 347 345 343 343 343 344
198 197 196 194 195 196 198 201 201 199 197 198 195 189 183 178 173 167 160 162 167 171 160 127 95 96 121 87 51 29 22 22 18 14 13 14 14 15 18 20 26 38 58 77 82 80 75 68 60 51 42 40 43 42 36 24 11 359 351 350 353 353 351 349 348 348 348 348 348 348 350 351 352 354 354 354 354 354 356 359 1 1 2 2 2 0 359 358 356 355 354 353 352 352 352 351 350 348 346 345 344 344 345
199 197 196 195 195 196 200 202 202 199 198 197 193 186 180 175 170 166 163 166 169 168 153 120 103 119 134 63 35 23 16 16 14 11 11 14 18 21 27 37 48 65 82 98 101 94 86 78 69 59 49 45 49 47 37 24 10 356 347 345 347 347 344 343 343 344 345 345 346 347 349 350 351 351 350 350 350 350 352 355 358 0 1 2 2 1 359 358 357 355 354 352 352 351 351 351 350 349 347 346 345 345 346
201 198 196 195 196 198 201 203 202 200 198 196 190 184 177 173 170 166 165 166 168 165 155 144 140 149 133 40 22 17 10 7 7 9 11 14 22 32 41 53 68 87 108 121 119 110 97 87 78 68 59 55 57 55 42 25 11 358 347 342 341 340 340 339 341 342 344 345 346 347 348 349 349 348 348 348 348 348 350 353 357 360 1 3 3 1 360 358 357 356 354 353 352 351 351 351 351 350 349 348 347 347 347
202 199 197 196 197 199 201 202 201 199 197 194 188 182 176 174 172 169 167 165 164 164 166 167 170 174 152 24 12 8 4 359 1 6 12 17 27 40 52 60 75 104 132 141 135 124 112 103 97 92 88 81 71 58 40 18 4 353 344 336 336 338 340 341 342 344 345 347 347 348 348 347 347 346 346 346 347 347 349 352 356 359 2 4 4 2 0 359 358 357 355 354 353 352 352 351 350 350 350 350 349 348 347
201 199 197 197 198 200 201 202 200 199 197 193 188 182 178 178 176 174 170 165 162 164 174 181 181 173 152 27 5 359 358 357 359 4 11 20 33 48 56 57 65 104 141 148 143 136 129 126 127 132 139 121 85 51 27 12 359 349 342 341 344 346 347 347 347 349 350 351 351 350 349 347 346 346 346 346 347 348 350 353 356 358 1 4 5 4 1 359 359 358 357 356 355 354 353 352 351 351 350 350 349 348 347
198 197 196 197 198 200 202 201 200 198 196 193 188 183 181 182 181 179 173 168 164 166 178 186 187 183 152 25 2 354 353 356 359 4 11 23 39 56 60 54 54 81 121 138 143 143 144 145 148 148 141 113 78 42 21 16 9 360 355 12 27 24 9 360 357 357 357 358 357 355 352 349 347 347 347 347 348 350 352 354 356 357 359 2 4 4 1 0 360 359 358 357 355 354 353 352 351 351 350 349 349 348 347
197 196 196 197 199 201 202 201 200 199 197 194 191 187 186 186 185 182 177 172 169 172 181 187 189 190 197 340 350 348 346 352 355 0 11 27 46 62 65 57 54 73 105 126 140 147 151 155 156 151 137 105 58 28 22 24 22 21 38 59 66 55 33 17 10 8 6 5 3 359 353 349 347 347 347 348 350 352 354 355 356 357 357 359 1 2 1 0 0 0 358 356 355 354 353 352 351 350 350 349 349 347 346
197 197 197 198 199 201 202 201 201 200 200 198 195 193 191 190 188 184 180 178 179 180 181 185 189 197 211 262 326 341 344 349 354 360 9 25 49 71 71 64 64 80 104 125 138 148 154 158 157 150 132 87 21 15 23 31 39 49 65 75 74 60 40 28 22 18 14 9 5 358 350 346 344 344 346 349 352 354 355 356 356 356 356 357 358 359 359 359 360 360 359 356 354 354 353 352 351 351 350 349 348 346 344
197 197 198 199 199 200 201 201 202 202 203 202 201 198 195 192 189 186 184 186 189 188 183 177 182 199 221 243 294 330 342 349 356 3 11 17 35 66 78 75 74 86 109 126 139 149 156 159 156 147 115 2 350 2 22 40 50 54 60 61 55 44 34 30 26 20 13 5 359 352 346 343 342 342 345 348 352 354 356 356 355 355 355 355 355 356 356 356 357 358 358 354 352 352 352 352 351 350 350 349 347 345 343
198 198 199 199 199 200 201 201 202 203 205 205 203 199 194 192 191 190 189 192 195 194 188 178 173 183 215 235 267 313 338 352 2 6 8 18 19 23 50 59 70 85 109 129 143 153 160 160 153 135 30 344 341 353 19 37 36 30 28 22 19 17 16 16 13 7 1 354 349 346 344 343 343 343 344 346 349 352 354 354 354 353 352 352 352 352 352 353 354 356 356 352 350 350 350 351 350 349 348 347 346 344 342
200 200 200 199 200 201 202 202 202 203 204 204 200 195 192 192 194 195 196 198 199 197 191 183 177 178 195 225 253 301 338 357 12 16 11 20 25 20 352 344 22 87 97 126 149 161 168 168 161 122 357 346 345 1 18 13 2 355 356 354 352 350 352 353 353 349 345 340 338 339 341 343 343 344 344 345 346 347 349 349 350 349 349 349 348 349 349 350 352 354 355 352 350 350 350 349 348 347 346 346 345 344 342
202 202 202 202 202 202 203 203 203 203 203 200 196 193 192 194 196 198 200 203 203 199 194 191 188 186 192 214 244 292 343 357 15 25 28 23 19 13 347 327 3 25 5 64 161 180 182 183 192 287 337 342 356 16 12 359 353 349 347 346 344 342 342 342 341 339 335 332 332 334 336 339 341 342 342 342 341 341 342 342 343 343 344 344 345 346 348 349 350 352 353 351 349 349 349 348 346 344 344 344 344 343 341
204 205 205 204 204 204 204 203 203 204 203 200 196 192 193 195 198 200 202 205 203 198 192 195 197 195 194 207 228 259 322 345 8 24 30 22 17 13 27 49 56 56 354 32 335 298 231 225 263 309 329 335 21 20 1 355 355 353 348 347 346 344 342 340 337 335 333 332 332 332 334 336 337 338 338 337 336 335 335 335 336 338 339 341 343 345 347 349 350 350 349 347 345 344 346 346 344 342 342 342 342 342 341
207 207 208 207 206 205 203 202 203 204 205 203 199 195 194 197 199 201 202 203 202 197 192 191 196 201 197 200 206 218 247 316 353 20 34 29 24 35 91 84 108 134 94 106 102 309 298 300 310 319 327 244 154 9 353 358 1 358 351 349 348 346 343 340 338 336 335 336 336 335 334 334 334 334 334 333 332 332 331 332 333 335 337 339 342 345 348 350 350 348 345 342 340 339 340 343 342 340 339 340 340 340 340
208 209 209 209 208 206 204 203 203 203 205 205 202 198 196 198 200 201 202 202 200 196 193 192 194 197 202 201 202 206 207 240 314 355 37 52 37 41 105 123 103 61 63 67 93 197 268 302 309 304 279 189 188 296 342 2 6 358 350 347 347 346 346 344 343 342 342 343 342 341 340 338 335 334 334 333 333 333 334 335 335 336 338 340 342 345 347 348 347 344 342 339 337 336 337 340 339 337 337 337 338 339 339
209 210 210 210 209 207 205 204 203 204 204 204 203 200 199 199 200 201 202 202 199 196 196 195 193 194 199 206 208 202 199 204 229 280 236 165 95 61 25 134 129 91 30 9 278 230 236 306 320 304 251 199 207 258 313 343 350 344 340 341 344 346 348 348 348 349 350 351 351 351 350 346 342 339 338 338 339 341 343 344 344 342 341 341 342 343 344 344 343 341 338 336 334 333 335 337 337 336 336 337 337 337 337
210 210 210 210 210 209 206 204 204 204 204 204 203 201 200 200 201 201 202 201 199 197 197 198 197 195 194 201 208 208 200 191 195 218 224 214 201 190 167 306 225 182 175 187 213 215 200 300 13 12 279 227 214 223 258 293 315 324 328 333 339 343 346 348 351 354 357 357 358 358 357 353 349 347 346 347 350 353 356 355 353 348 344 341 339 339 340 340 340 338 336 334 332 332 334 337 337 336 336 337 337 337 336
210 210 210 210 211 210 207 206 205 205 205 204 202 201 201 202 203 203 202 202 199 198 197 197 199 199 196 196 199 205 206 194 189 192 207 215 213 209 204 215 223 248 277 216 197 178 151 119 108 163 294 300 261 205 207 235 276 304 317 325 333 339 343 347 352 357 360 360 358 357 357 357 355 354 355 358 3 6 6 3 359 353 346 341 338 336 336 336 336 336 334 332 331 330 332 338 340 339 338 337 337 337 336
210 210 210 211 211 210 209 208 207 206 205 203 201 200 201 203 204 204 204 202 200 198 198 198 199 200 200 201 198 199 204 201 194 190 193 200 208 213 215 217 225 237 247 240 235 220 171 144 151 162 117 343 327 287 204 208 229 275 305 317 327 334 340 345 351 356 358 358 357 356 356 357 359 0 3 9 14 14 10 7 3 357 352 346 341 337 336 335 335 334 333 331 329 329 332 339 342 341 339 338 337 336 335
210 210 209 210 210 210 210 210 209 208 206 204 202 201 202 203 205 205 204 202 200 200 201 200 200 200 203 205 202 199 200 200 200 198 196 191 196 209 217 220 226 235 246 248 240 233 233 207 184 165 137 136 300 303 292 233 217 247 288 310 323 331 338 344 350 353 355 355 355 355 355 356 359 5 11 17 18 15 11 8 5 3 359 354 349 346 342 340 339 337 336 333 332 333 335 340 343 342 339 338 336 334 333
210 210 209 209 210 210 210 209 209 208 206 204 203 202 202 204 205 204 202 199 199 201 202 203 202 202 202 204 201 197 197 201 203 205 207 198 196 202 212 215 221 226 231 234 236 233 223 219 215 202 175 156 158 239 281 291 292 289 296 311 322 330 336 342 347 349 350 352 353 354 354 355 359 5 14 19 18 13 8 7 6 5 4 1 358 355 352 350 348 345 342 340 339 339 340 341 341 340 339 338 335 333 332